Patterson, LA

7:49 PM CST on November 22, 2019 (GMT -0600)
Williams Memorial

Weather History for KPTN - September, 2019

Change the Weather History Date:

Friday, September 27, 2019

  Actual Average Record
Temperature  
Mean Temperature 84 °F -  
Max Temperature 90 °F 82 °F 96 °F (1998)
Min Temperature 77 °F 64 °F 53 °F (2000)
Cooling Degree Days 18    
Growing Degree Days 34 (Base 50)    
Moisture  
Dew Point 73 °F    
Average Humidity 73    
Maximum Humidity 90    
Minimum Humidity 57    
Precipitation  
Precipitation 0.00 in - - ()
Sea Level Pressure  
Sea Level Pressure 29.93 in    
Wind  
Wind Speed 4 mph (SE)    
Max Wind Speed 12 mph    
Max Gust Speed -    
Visibility 9 miles    
Events      
Averages and records for this station are not official NWS values.
T = Trace of Precipitation, MM = Missing Value Source: NWS Daily Summary

Daily Weather History Graph

Daily Weather History Graph

Search for Another Location

Airport or City:

Astronomy

Sep. 27, 2019 Rise Set
Actual Time 6:56 AM CDT 6:55 PM CDT
Civil Twilight 6:32 AM CDT 7:19 PM CDT
Nautical Twilight 6:04 AM CDT 7:47 PM CDT
Astronomical Twilight 5:36 AM CDT 8:15 PM CDT
Moon 5:30 AM CDT (9/27) 6:37 PM CDT (9/27)
Length of Visible Light 12h 47m
Length of Day
11h 59m
Waning Crescent, 2% of the Moon is Illuminated
Sep 27
Waning Crescent
Sep 28
New
Oct 5
First Quarter
Oct 13
Full
Oct 21
Last Quarter

Hourly Weather History & Observations

Time (CDT) Temp. Heat Index Dew Point Humidity Pressure Visibility Wind Dir Wind Speed Gust Speed Precip Events Conditions
12:56 AM - - - N/A% 29.92 in 10.0 mi Calm Calm - N/A   Clear
1:56 AM - - - N/A% 29.92 in 10.0 mi Calm Calm - N/A   Clear
2:56 AM - - - N/A% 29.91 in 10.0 mi Calm Calm - N/A   Scattered Clouds
3:56 AM - - - N/A% 29.91 in 10.0 mi East 3.5 mph - N/A   Scattered Clouds
4:56 AM - - - N/A% 29.92 in 8.0 mi ESE 3.5 mph - N/A   Clear
5:56 AM - - - N/A% 29.93 in 7.0 mi East 3.5 mph - N/A   Clear
6:19 AM - - - N/A% 29.93 in 1.2 mi East 3.5 mph - N/A   Partly Cloudy
6:30 AM - - - N/A% 29.94 in 3.0 mi East 3.5 mph - N/A   Partly Cloudy
6:56 AM - - - N/A% 29.94 in 9.0 mi East 3.5 mph - N/A   Clear
7:56 AM - - - N/A% 29.95 in 10.0 mi East 4.6 mph - N/A   Clear
8:56 AM 80.1 °F 84.2 °F 73.0 °F 79% 29.96 in 9.0 mi ESE 4.6 mph - N/A   Clear
9:56 AM 84.0 °F 89.6 °F 72.0 °F 67% 29.98 in 10.0 mi SE 9.2 mph - N/A   Clear
10:56 AM 87.1 °F 93.6 °F 72.0 °F 61% 29.99 in 10.0 mi SSE 11.5 mph - N/A   Mostly Cloudy
11:56 AM 88.0 °F 93.8 °F 71.1 °F 57% 29.97 in 10.0 mi ESE 9.2 mph - N/A   Scattered Clouds
1:56 PM 89.1 °F 97.0 °F 73.0 °F 59% 29.94 in 10.0 mi SSE 9.2 mph - N/A   Mostly Cloudy
2:56 PM 90.0 °F 99.0 °F 73.9 °F 59% 29.92 in 10.0 mi South 9.2 mph - N/A   Partly Cloudy
3:56 PM 86.0 °F 93.0 °F 73.0 °F 65% 29.91 in 10.0 mi SSE 8.1 mph - N/A   Mostly Cloudy
4:56 PM 86.0 °F 93.8 °F 73.9 °F 67% 29.90 in 10.0 mi SSE 8.1 mph - N/A   Partly Cloudy
5:56 PM 84.9 °F 90.7 °F 72.0 °F 65% 29.90 in 10.0 mi SE 11.5 mph - N/A   Clear
6:56 PM 81.0 °F 85.8 °F 73.0 °F 77% 29.90 in 10.0 mi SE 4.6 mph - N/A   Clear
7:56 PM 78.1 °F - 73.0 °F 84% 29.91 in 10.0 mi SE 3.5 mph - N/A   Clear
8:56 PM 78.1 °F - 73.9 °F 87% 29.94 in 10.0 mi SE 4.6 mph - N/A   Scattered Clouds
9:56 PM 77.0 °F - 73.9 °F 90% 29.94 in 10.0 mi ESE 3.5 mph - N/A   Clear
10:56 PM 77.0 °F - 73.9 °F 90% 29.95 in 10.0 mi Calm Calm - N/A   Partly Cloudy
11:56 PM 77.0 °F - 73.9 °F 90% 29.95 in 10.0 mi SE 3.5 mph - N/A   Clear